Location: Unspecified
(0.0000°N, 0.0000°E)
Time: 00:46:55
(UTC+00:00)

SRMSAT - Pass Details

Date: 04 April 2019
Orbit: 848 x 866 km, 20.0° (Epoch: 19 July)

Event Time Altitude Azimuth Distance (km) Brightness Sun altitude
Exits shadow 04:16:29 13° 345° (NNW) 2,219 ? -26.5°
Maximum altitude 04:19:03 17° 14° (NNE) 1,992 ? -25.9°
Drops below altitude 10° 04:22:50 10° 54° (NE) 2,463 ? -25.0°
Sets 04:26:18 0° 74° (ENE) 3,403 ? -24.1°
